Snowfall_Accumulation
0.0 0.0 0.0 0.0 0.0 0.0 0.0 0.0 26.0 0.0 0.0 21.6 41.6 28.8 7.8 0.5 0.1 0.1 2.9 5.1 9.1 11.9 11.9 14.1 18.4 12.5 4.0 0.3 2.6 5.7 4.7 19.1 12.0 6.7 1.6 1.6 7.6 21.9 34.1 54.6 49.8 47.5 45.3 44.3
0.0 0.0 0.0 0.0 0.0 0.0 0.0 12.6 7.9 0.0 0.0 39.8 25.1 5.9 3.4 2.6 3.7 2.0 4.8 7.7 10.9 12.8 14.7 16.1 10.6 8.9 1.3 0.0 2.2 9.3 7.1 17.8 13.2 8.7 1.3 0.5 7.6 8.2 16.8 31.0 41.4 51.4 48.9 49.6
0.0 0.0 0.0 0.0 0.0 0.0 0.0 7.4 42.2 5.9 5.4 3.3 7.0 10.1 8.0 7.7 0.0 2.5 0.9 8.8 9.9 11.4 6.9 7.2 9.4 7.2 1.7 0.0 0.4 0.0 0.4 15.0 15.1 13.7 13.7 10.2 15.1 10.6 7.9 19.5 47.5 34.0 34.2 30.7
0.0 0.0 0.0 0.0 0.0 0.0 0.0 21.9 38.3 0.4 24.6 18.0 9.2 8.9 10.9 7.8 6.3 1.0 0.7 9.1 8.1 11.3 13.6 6.8 4.5 4.8 3.4 0.2 0.9 0.5 1.8 17.5 9.4 6.6 7.4 4.7 7.3 13.6 10.3 13.9 15.5 26.2 28.2 18.7
0.0 0.0 0.0 0.0 0.0 0.0 0.0 63.1 14.9 4.5 5.0 1.1 8.1 16.6 16.6 8.1 2.7 9.5 4.8 5.9 3.8 6.1 11.2 7.6 8.3 5.6 2.4 5.1 0.1 0.7 1.0 9.2 10.2 9.0 6.1 3.2 12.6 11.8 8.6 8.6 10.3 12.6 7.2 13.4
0.0 0.0 0.0 0.0 0.0 0.0 0.0 3.1 0.0 11.6 5.3 4.1 10.3 9.7 6.1 6.3 6.9 0.6 2.3 5.1 7.9 7.0 4.5 1.2 1.1 1.9 2.2 4.2 5.9 5.3 5.9 8.7 7.9 10.0 2.4 5.6 15.3 17.2 9.0 6.6 4.2 4.8 6.9 13.6
0.0 0.0 0.0 0.0 0.0 0.0 0.0 0.0 1.4 25.8 21.2 9.9 6.5 3.3 4.3 5.6 5.0 8.8 2.8 1.3 5.1 0.0 0.0 0.0 0.0 0.9 0.5 0.4 1.8 2.4 7.6 7.2 9.7 10.3 7.4 28.8 12.6 4.2 3.3 2.4 2.3 3.1 3.1 3.3
0.0 0.0 0.0 0.0 0.0 0.0 0.0 0.0 0.2 20.1 20.8 5.2 6.2 4.7 5.5 1.5 3.1 4.7 3.4 1.2 0.0 0.0 1.8 6.6 7.2 3.9 3.1 1.1 0.4 1.2 2.3 7.5 16.0 17.4 11.1 12.6 11.0 2.7 2.8 2.9 2.9 2.3 1.4 0.8
0.0 0.0 0.0 0.0 0.0 0.0 0.0 0.0 0.0 11.8 31.4 9.4 2.0 8.1 6.0 8.3 5.4 6.4 3.7 0.0 0.0 0.0 6.1 13.0 14.9 6.0 4.7 2.5 2.5 0.0 1.6 5.0 23.2 19.7 17.2 21.7 8.7 0.7 0.1 1.8 5.4 1.3 0.3 0.3
0.0 0.0 0.0 0.0 0.0 0.0 0.0 0.0 0.0 6.3 37.0 1.3 1.6 4.9 8.4 5.5 7.5 10.6 2.3 4.6 1.6 2.3 11.3 14.1 12.2 9.8 5.0 7.9 6.9 5.4 9.9 15.5 26.0 23.6 25.9 17.5 2.0 1.1 0.5 8.6 9.4 1.5 0.2 0.1
0.0 0.0 0.0 0.0 0.0 0.0 0.0 0.0 0.0 0.0 21.4 1.6 0.0 0.3 2.7 5.0 5.0 10.6 7.4 12.7 11.3 14.5 18.8 16.0 12.5 12.2 10.5 7.2 4.0 9.3 12.4 17.1 17.0 19.2 24.9 23.7 2.8 1.9 5.0 6.3 1.3 0.9 0.4 0.2
0.0 0.0 0.0 0.0 0.0 0.0 0.0 4.7 0.0 0.0 4.3 0.3 0.0 0.0 0.0 0.0 0.0 4.7 6.4 12.2 11.1 13.6 22.6 16.6 8.9 9.6 11.4 8.1 12.8 4.1 14.1 10.7 14.1 11.2 17.1 8.7 6.5 5.6 2.4 2.2 2.3 2.2 0.9 0.3
0.0 0.0 0.0 0.0 0.0 0.0 0.0 1.7 0.0 0.0 14.2 0.3 0.0 0.0 0.0 0.0 0.0 0.0 6.7 3.9 2.7 7.1 7.8 12.6 10.9 11.3 8.3 10.0 5.7 4.8 4.9 0.8 9.2 10.9 7.7 3.9 6.7 4.7 2.1 0.9 3.9 2.0 0.8 1.1
0.0 0.0 0.0 0.0 0.0 0.0 0.0 0.0 0.0 0.0 3.6 18.9 4.1 0.0 0.0 0.0 0.0 0.0 0.0 0.0 0.0 0.0 0.0 11.8 9.9 7.8 3.3 6.8 5.1 2.4 5.3 3.8 6.9 11.6 7.1 4.0 2.8 3.4 2.5 2.3 2.1 0.8 0.4 0.8
0.0 0.0 0.0 0.0 0.0 0.0 0.0 0.0 0.0 0.0 1.9 18.5 7.6 0.0 0.0 0.0 0.0 0.0 0.0 0.0 0.3 1.4 7.9 11.0 5.7 1.9 5.1 1.6 3.4 5.4 2.2 5.1 11.9 11.9 10.7 9.1 6.5 5.5 4.6 3.9 2.6 1.0 0.9 2.0
0.0 0.0 0.0 0.0 0.0 0.0 0.0 46.9 0.0 0.0 0.0 14.0 12.2 0.0 0.0 0.0 0.0 0.0 0.0 0.0 0.3 1.0 3.3 6.2 1.6 0.0 3.4 6.6 7.4 4.9 4.5 2.7 2.8 5.6 6.5 9.1 9.2 6.2 3.1 2.5 0.9 0.1 0.1 0.0
0.0 0.0 0.0 0.0 0.0 0.0 6.1 21.4 0.6 0.0 0.0 19.4 20.4 7.4 0.0 0.0 0.0 0.0 0.0 0.0 0.4 2.8 6.2 4.7 2.0 1.4 1.7 7.5 6.6 1.7 0.9 0.5 0.3 0.6 0.5 1.6 1.0 0.9 0.1 0.0 0.0 0.0 0.0 0.0
0.0 0.0 0.0 0.0 0.0 0.0 3.0 0.0 0.0 0.0 2.8 7.8 23.1 11.1 6.0 0.0 5.2 8.8 0.9 5.7 3.4 3.2 3.7 2.8 2.4 2.0 3.3 14.5 1.0 0.0 0.0 0.0 0.0 0.0 0.0 0.0 0.0 0.0 0.0 0.0 0.0 0.0 0.0 0.0
0.0 0.0 0.0 0.0 0.0 22.9 0.0 0.0 0.0 0.0 7.5 20.2 8.1 6.4 19.1 0.0 5.5 5.0 6.3 2.7 13.5 1.7 7.0 2.5 2.8 6.9 15.5 9.7 2.0 0.8 0.4 0.2 0.7 0.0 0.0 0.0 0.1 0.1 0.0 0.7 0.7 0.1 0.8 2.9
0.0 0.0 9.4 74.2 9.1 0.0 0.0 2.2 30.6 23.6 10.0 5.1 4.6 1.7 11.7 3.1 8.2 10.6 10.1 6.9 8.2 9.7 4.0 0.2 6.7 8.6 3.3 2.0 2.6 3.2 1.8 2.1 1.1 1.1 0.7 1.0 0.8 1.0 1.4 1.5 2.1 2.5 2.8 2.9
0.0 40.2 43.0 2.0 0.0 0.0 11.7 57.2 43.8 23.5 19.9 2.0 2.0 0.9 3.5 3.2 16.0 8.9 7.6 14.9 8.6 11.0 6.9 6.7 11.2 14.4 7.3 4.9 5.8 3.4 1.2 0.7 0.8 1.0 1.3 1.1 0.9 1.2 1.7 2.8 1.3 1.8 1.8 2.1
0.0 0.0 0.0 0.0 21.7 39.4 42.0 35.0 18.8 7.4 4.5 1.0 1.5 0.6 0.3 1.4 3.9 14.9 9.4 12.5 17.6 16.8 7.8 15.4 16.7 11.6 4.9 4.9 4.9 1.8 0.5 0.1 0.1 0.2 0.4 0.7 0.8 1.0 1.0 1.6 1.9 2.6 3.2 4.0
0.0 13.9 37.7 26.8 45.0 47.2 28.9 16.7 9.1 7.7 4.0 3.8 1.3 5.2 3.7 2.2 11.1 18.0 12.3 13.9 15.4 6.0 18.6 23.2 23.0 7.8 4.0 3.4 2.9 2.3 1.4 1.2 0.6 1.1 1.2 1.2 1.6 2.1 2.9 3.2 5.1 5.5 6.3 8.3
20.1 38.4 39.3 26.9 21.3 10.9 8.4 5.0 3.9 4.6 5.2 5.0 2.6 5.2 8.4 9.1 19.3 26.1 21.7 16.0 6.4 15.1 16.5 23.0 16.0 7.7 8.4 5.7 4.5 4.1 5.6 6.3 6.0 5.9 6.0 7.0 6.9 7.8 9.1 7.8 8.2 6.6 7.4 9.5
21.6 12.4 16.0 11.4 9.7 8.1 7.3 5.4 5.4 4.8 8.1 7.1 7.9 8.5 11.6 15.2 20.7 15.7 11.4 9.6 9.4 10.0 13.9 21.8 10.5 6.9 6.7 5.7 5.5 5.7 6.3 6.5 7.1 7.8 7.0 9.8 8.5 7.5 10.8 9.4 8.2 6.3 6.0 5.7
10.5 11.7 12.2 7.8 6.7 7.5 8.2 7.1 7.8 5.8 10.4 9.0 10.5 14.7 16.1 17.0 11.4 10.2 7.9 7.1 12.7 13.2 8.8 7.0 7.7 7.2 7.7 8.0 8.0 8.1 8.4 7.5 6.8 6.5 6.1 6.9 6.7 6.4 6.4 7.0 6.5 5.7 4.5 4.4
9.8 11.2 12.5 11.1 9.2 10.6 11.2 8.9 8.4 6.2 8.6 12.2 7.8 13.5 13.0 10.6 11.7 13.2 11.1 14.7 18.1 10.4 9.2 8.0 8.1 8.0 8.7 8.6 8.4 8.8 7.6 6.0 5.5 5.3 4.9 4.6 4.3 3.2 2.1 2.9 4.7 3.9 4.1 3.8